Location: St Paul
(33.9360°N, 83.4200°W)
Time: 14:38:32
(UTC-04:00)

FREGAT/IRIS - Pass Details

Date: 06 October 2017
Orbit: 379 x 388 km, 97.0° (Epoch: 18 October)

Event Time Altitude Azimuth Distance (km) Brightness Sun altitude
Exits shadow 20:54:03 18° 206° (SSW) 1,034 4.9 -22.2°
Maximum altitude 20:55:47 33° 262° (W) 675 4.3 -22.6°
Drops below altitude 10° 20:58:33 10° 329° (NNW) 1,412 5.9 -23.1°
Sets 21:00:38 0° 339° (NNW) 2,269 6.9 -23.5°
